Hourly Weather Florianópolis

Today, 20 September, Sunday

Time Temperature Precipitation Wind Pressure Humidity
00:00 +16°C° 0 mm 6 mps 763 mmHg 85%
01:00 +16°C° 0 mm 6 mps 764 mmHg 83%
02:00 +16°C° 0 mm 5 mps 764 mmHg 82%
03:00 +15°C° 0 mm 5 mps 764 mmHg 80%
04:00 +15°C° 0 mm 5 mps 764 mmHg 80%
05:00 +15°C° 0 mm 5 mps 764 mmHg 79%
06:00 +15°C° 0 mm 5 mps 764 mmHg 79%
07:00 +14°C° 0.1 mm 4 mps 765 mmHg 79%
08:00 +14°C° 0.1 mm 4 mps 765 mmHg 79%
09:00 +14°C° 0.1 mm 4 mps 766 mmHg 79%
10:00 +14°C° 0.1 mm 4 mps 766 mmHg 79%
11:00 +14°C° 0.1 mm 4 mps 765 mmHg 80%
12:00 +14°C° 0.1 mm 4 mps 765 mmHg 80%
13:00 +14°C° 0.1 mm 4 mps 765 mmHg 81%
14:00 +14°C° 0.1 mm 3 mps 765 mmHg 83%
15:00 +13°C° 0.1 mm 3 mps 764 mmHg 85%
16:00 +13°C° 0.2 mm 3 mps 765 mmHg 84%
17:00 +13°C° 0.2 mm 3 mps 765 mmHg 84%
18:00 +13°C° 0.2 mm 3 mps 765 mmHg 84%
19:00 +13°C° 0 mm 3 mps 765 mmHg 83%
20:00 +13°C° 0 mm 3 mps 766 mmHg 82%
21:00 +13°C° 0 mm 3 mps 767 mmHg 82%
22:00 +13°C° 0 mm 3 mps 767 mmHg 81%
23:00 +13°C° 0 mm 3 mps 767 mmHg 80%

Tomorrow, 21 September, Monday

Time Temperature Precipitation Wind Pressure Humidity
00:00 +13°C° 0 mm 3 mps 767 mmHg 80%
01:00 +13°C° 0 mm 3 mps 766 mmHg 79%
02:00 +13°C° 0 mm 3 mps 766 mmHg 79%
03:00 +13°C° 0 mm 3 mps 766 mmHg 78%
04:00 +12°C° 0 mm 3 mps 766 mmHg 79%
05:00 +12°C° 0 mm 3 mps 766 mmHg 80%
06:00 +12°C° 0 mm 3 mps 766 mmHg 81%
07:00 +13°C° 0 mm 3 mps 766 mmHg 74%
08:00 +14°C° 0 mm 3 mps 767 mmHg 66%
09:00 +17°C° 0 mm 2 mps 767 mmHg 59%
10:00 +17°C° 0 mm 3 mps 767 mmHg 57%
11:00 +18°C° 0 mm 3 mps 767 mmHg 55%
12:00 +19°C° 0 mm 3 mps 766 mmHg 53%
13:00 +19°C° 0 mm 4 mps 766 mmHg 54%
14:00 +19°C° 0 mm 4 mps 766 mmHg 55%
15:00 +18°C° 0 mm 4 mps 765 mmHg 56%
16:00 +17°C° 0 mm 4 mps 766 mmHg 59%
17:00 +15°C° 0 mm 4 mps 766 mmHg 63%
18:00 +14°C° 0 mm 3 mps 766 mmHg 66%
19:00 +14°C° 0 mm 3 mps 767 mmHg 69%
20:00 +13°C° 0 mm 3 mps 767 mmHg 71%
21:00 +12°C° 0 mm 3 mps 768 mmHg 73%
22:00 +12°C° 0 mm 3 mps 768 mmHg 74%
23:00 +13°C° 0 mm 2 mps 768 mmHg 76%

Day after tomorrow, 22 September, Tuesday

Time Temperature Precipitation Wind Pressure Humidity
00:00 +12°C° 0 mm 2 mps 768 mmHg 77%
01:00 +12°C° 0 mm 2 mps 768 mmHg 77%
02:00 +12°C° 0 mm 2 mps 768 mmHg 76%
03:00 +12°C° 0 mm 2 mps 768 mmHg 76%
04:00 +12°C° 0 mm 2 mps 768 mmHg 76%
05:00 +12°C° 0 mm 2 mps 768 mmHg 77%
06:00 +12°C° 0 mm 2 mps 768 mmHg 77%
07:00 +14°C° 0 mm 2 mps 768 mmHg 72%
08:00 +15°C° 0 mm 2 mps 769 mmHg 68%
09:00 +17°C° 0 mm 2 mps 769 mmHg 63%
10:00 +18°C° 0 mm 2 mps 769 mmHg 61%
11:00 +18°C° 0 mm 2 mps 769 mmHg 60%
12:00 +19°C° 0 mm 2 mps 769 mmHg 58%
13:00 +19°C° 0 mm 2 mps 768 mmHg 59%
14:00 +19°C° 0 mm 2 mps 768 mmHg 61%
15:00 +19°C° 0 mm 2 mps 767 mmHg 62%
16:00 +18°C° 0 mm 2 mps 767 mmHg 65%
17:00 +17°C° 0 mm 2 mps 768 mmHg 68%
18:00 +17°C° 0 mm 2 mps 768 mmHg 72%
19:00 +17°C° 0 mm 2 mps 768 mmHg 73%
20:00 +16°C° 0 mm 2 mps 769 mmHg 74%
21:00 +16°C° 0 mm 1 mps 769 mmHg 76%
22:00 +16°C° 0 mm 1 mps 769 mmHg 77%
23:00 +16°C° 0 mm 1 mps 769 mmHg 78%

23 September, Wednesday

Time Temperature Precipitation Wind Pressure Humidity
00:00 +15°C° 0 mm 2 mps 768 mmHg 79%
01:00 +16°C° 0 mm 1 mps 768 mmHg 79%
02:00 +16°C° 0 mm 1 mps 768 mmHg 78%
03:00 +16°C° 0 mm 1 mps 768 mmHg 78%
04:00 +16°C° 0 mm 1 mps 768 mmHg 80%
05:00 +15°C° 0 mm 1 mps 768 mmHg 83%
06:00 +15°C° 0 mm 2 mps 768 mmHg 85%
07:00 +16°C° 0 mm 2 mps 768 mmHg 82%
08:00 +17°C° 0 mm 2 mps 768 mmHg 80%
09:00 +18°C° 0 mm 2 mps 769 mmHg 78%
10:00 +20°C° 0 mm 2 mps 768 mmHg 73%
11:00 +21°C° 0 mm 3 mps 768 mmHg 68%
12:00 +22°C° 0 mm 3 mps 768 mmHg 63%
13:00 +24°C° 0 mm 3 mps 767 mmHg 64%
14:00 +24°C° 0 mm 3 mps 767 mmHg 64%
15:00 +24°C° 0 mm 3 mps 766 mmHg 65%
16:00 +22°C° 0 mm 3 mps 766 mmHg 71%
17:00 +21°C° 0 mm 3 mps 766 mmHg 77%
18:00 +20°C° 0 mm 3 mps 766 mmHg 82%
19:00 +19°C° 0 mm 3 mps 767 mmHg 85%
20:00 +18°C° 0 mm 2 mps 767 mmHg 88%
21:00 +17°C° 0 mm 2 mps 767 mmHg 91%
22:00 +17°C° 0 mm 2 mps 767 mmHg 91%
23:00 +17°C° 0 mm 2 mps 767 mmHg 90%

24 September, Thursday

Time Temperature Precipitation Wind Pressure Humidity
00:00 +17°C° 0 mm 2 mps 767 mmHg 90%
01:00 +17°C° 0 mm 2 mps 767 mmHg 90%
02:00 +17°C° 0 mm 2 mps 766 mmHg 91%
03:00 +17°C° 0 mm 2 mps 766 mmHg 92%
04:00 +17°C° 0 mm 2 mps 766 mmHg 92%
05:00 +17°C° 0 mm 2 mps 766 mmHg 92%
06:00 +17°C° 0 mm 2 mps 766 mmHg 92%
07:00 +19°C° 0 mm 2 mps 766 mmHg 83%
08:00 +21°C° 0 mm 3 mps 766 mmHg 75%
09:00 +24°C° 0 mm 3 mps 766 mmHg 66%
10:00 +25°C° 0 mm 3 mps 766 mmHg 62%
11:00 +27°C° 0 mm 4 mps 765 mmHg 58%
12:00 +28°C° 0 mm 4 mps 765 mmHg 53%
13:00 +28°C° 0 mm 4 mps 764 mmHg 55%
14:00 +28°C° 0 mm 4 mps 764 mmHg 56%
15:00 +28°C° 0 mm 4 mps 763 mmHg 58%
16:00 +26°C° 0 mm 4 mps 763 mmHg 67%
17:00 +24°C° 0 mm 3 mps 763 mmHg 77%
18:00 +21°C° 0 mm 3 mps 763 mmHg 86%
19:00 +21°C° 0 mm 2 mps 764 mmHg 88%
20:00 +20°C° 0 mm 2 mps 764 mmHg 90%
21:00 +20°C° 0 mm 2 mps 765 mmHg 93%
22:00 +20°C° 0.1 mm 2 mps 764 mmHg 93%
23:00 +20°C° 0.1 mm 2 mps 764 mmHg 93%

25 September, Friday

Time Temperature Precipitation Wind Pressure Humidity
00:00 +22°C° 0.1 mm 1 mps 764 mmHg 93%
01:00 +20°C° 0.2 mm 2 mps 764 mmHg 94%
02:00 +20°C° 0.2 mm 2 mps 763 mmHg 95%
03:00 +20°C° 0.2 mm 2 mps 763 mmHg 95%
04:00 +20°C° 0.1 mm 2 mps 763 mmHg 95%
05:00 +20°C° 0.1 mm 2 mps 763 mmHg 95%
06:00 +20°C° 0.1 mm 2 mps 763 mmHg 95%
07:00 +21°C° 0.1 mm 2 mps 764 mmHg 91%
08:00 +23°C° 0.1 mm 2 mps 764 mmHg 87%
09:00 +25°C° 0.1 mm 3 mps 764 mmHg 83%
10:00 +26°C° 0 mm 3 mps 764 mmHg 75%
11:00 +27°C° 0 mm 4 mps 763 mmHg 68%
12:00 +28°C° 0 mm 4 mps 763 mmHg 61%
13:00 +28°C° 0 mm 4 mps 762 mmHg 62%
14:00 +28°C° 0 mm 4 mps 761 mmHg 63%
15:00 +27°C° 0 mm 5 mps 760 mmHg 63%
16:00 +26°C° 0 mm 4 mps 760 mmHg 70%
17:00 +25°C° 0 mm 4 mps 760 mmHg 77%
18:00 +24°C° 0 mm 3 mps 760 mmHg 84%
19:00 +24°C° 0.1 mm 3 mps 761 mmHg 87%
20:00 +22°C° 0.1 mm 3 mps 761 mmHg 90%
21:00 +22°C° 0.1 mm 3 mps 761 mmHg 93%
22:00 +22°C° 0.1 mm 3 mps 761 mmHg 93%
23:00 +22°C° 0.1 mm 3 mps 761 mmHg 94%
Show more